DCE

Aclaracion sobre Validaciones
Las actividades aqui validadas con la respectiva imagen son actividades que YA estan incluidas en el Log en Linea. Una actividad puede estar validada y no tener la imagen de Validacion cuando esta se ha aprobado, pero aun no se ha incluido el Log en la Base de datos, siendo informado SOLO el Activador en cuestion.
 VALIDA   NO VALIDA 


Activaciones en la Base de Datos  6724  Referencias Diferentes  4587


Fecha   Qrz   Referencia Nombre DME
27/10/2018 EA5GOR    CA-322 Murallas Iberas El Forat  03059   
21/10/2018 EA2TW    CS-015 Torre del Merino  39076   
21/10/2018 EH5TYF    CA-119 Torre de Santiago  03014 
20/10/2018 EA2TW    CS-265 Casa Fuerte La Parra  39076   
19/10/2018 EA5GOR    CA-319 Torreta Muça Al Moravit  03043   
17/10/2018 EA1BQR/P    COU-017 Torre Valdeorras  32009   
17/10/2018 EA3FNZ    CL-230 Ceuro  25064   
17/10/2018 EB5EEV/4    CTO-062 Monasterio de San Vicente  45144 
15/10/2018 EA3FNZ    CL-142 La Clua  25044   
14/10/2018 EA5HRC    CMU-156 Alcazaba Molina de Segura  30027   
13/10/2018 EB1EB    CS-167 Torre Ceballos de San Martin  39052   
12/10/2018 EA3CV    CB-106 Castillo de Rubio  08185   
12/10/2018 EA5XC    CA-266 Torre de La Cañada  03065   
11/10/2018 EC5AHA    CCS-006 Castillo de Fadrell  12040   
10/10/2018 EA3FNZ    CL-068 Abella de la Conca  25001   
10/10/2018 EA3TO/P    CB-399 Torre Ballester o Balet  08060   
10/10/2018 EA7JAN    CCA-159 Murallas de Jerez  11020 
09/10/2018 EA1BQR/P    COU-011 Torre de Pena da Portela  32032   
09/10/2018 EA5URL/P    CV-051 Enguera  46118   
09/10/2018 EA5XC    CA-264 Torre Jubalcoy  03065   
07/10/2018 EA6AIU    CIB-003 Castillo Santueri  07022   
07/10/2018 EA7GX    CCA-052 Fuerte Santa Barbara  11022   
07/10/2018 EC5AHA    CCS-145 Torre de la Muela  12071   
07/10/2018 EH5TYF    CA-099 Torre Cipres  03014 
06/10/2018 EA5XC    CA-161 Torre Ressemblanch  03065   
05/10/2018 EA1GTX    CPO-033 Torre del Principe  36003   
05/10/2018 EA3FNZ    CL-018 Santa Fe  25152   
05/10/2018 EC5AHA    CCS-304 Portal de los Huertos  12140   
02/10/2018 EA9ACE    CCE-095 Bateria del Molino  51001   
01/10/2018 EA1BQR/P    CPO-015 Torre Guimarey (San Julian Guimarey)  36017   
30/09/2018 EA5HRC    CMU-155 Torre Defensa Monasterio San Gines de la Jara  30016   
30/09/2018 EC5AHA    CV-257 Murallas Ibericas Castellet de Bernabe  46147   
29/09/2018 EA3FNZ    CB-434 Torre Foix  08099   
29/09/2018 EA5RCK/1    CZA-039 Torre Iglesia Mombuey  49121   
29/09/2018 EA5XC    CA-088 Castillo de La Murta  03002   
29/09/2018 EA9ABC    CCE-020 Castillo San Amaro  51001 
28/09/2018 EA3TO/P    CL-343 Castell Castelltallat  25115   
27/09/2018 EB5EEV/P    CV-058 Castillo de Jalance  46142 
25/09/2018 EA5RCK/1    CLE-057 Castillo Valdavido  24172   
23/09/2018 EA5CH/1    CZA-005 Castillo de Alba  49098   
23/09/2018 EC5AHA    CV-167 Torre de la Plaza  46060   
23/09/2018 EH5TYF    CA-103 Torre de las Aguilas  03014 
22/09/2018 EA3URM    CB-391 Torre Fossada  08054 
22/09/2018 EA5RCP    CV-003 Castillo de Benisano  46067   
21/09/2018 EA3TO/P    CL-042 Castellbo  25140   
19/09/2018 EA3RKS    CB-034 Barbera del Valles  08252   
19/09/2018 EA3TO/P    CL-319 Castell DArgenta o Tancalaporta  25250   
19/09/2018 EA5CH/1    CLE-055 Torre Fresno  24216   
14/09/2018 EA3CV    CAV-015 Castillo Aunqueospese  05130   
14/09/2018 EA7JTF/P    CAV-040 Atalaya Bernuy - Salinero  05019   
14/09/2018 EC2AHS/P    CVI-135 Casa Torre de los Hurtado de Mendoza  01017   
09/09/2018 EA3HZC    CB-392 Torre Pinós  08096   
09/09/2018 EA3KX    CGI-138 Torcafello  17103 
09/09/2018 EA5GOR    CA-321 Torre Grossa  03053   
09/09/2018 EA5RKB/2    CNA-174 Palacio de los Mora  31085   
09/09/2018 EC2AHS/P    CNA-175 Palacio Cabo Armeria Ciriza  31075   
09/09/2018 EC5AHA    CCS-053 Murallas de Almedijar  12010   
09/09/2018 EG2MHC    CNA-176 Palacio del Señorio de Elio  31075   
08/09/2018 EA1CIU    CPO-003 Castillo de Soutomaiyor  36053 
08/09/2018 EA5GOR    CA-143 Castillo de Almizra  03051   
07/09/2018 EA3FNZ/QRP    CSA-005 Castillo de Ledesma o La Fortaleza  37170   
07/09/2018 EC2AHS/P    CVI-037 Murallas y Torre Fuerte de Antoñana  01017   
05/09/2018 EC7AT/P    CAL-147 Fortín Millares N5  04047   
02/09/2018 EA3CV    CL-214 Timor  25905   
01/09/2018 EA3HUX    CBU-054 Castrobarto  09189   
01/09/2018 EA5GOR    CA-121 Torre la Isleta  03050   
01/09/2018 EH1FVN    CC-074 Murallas de Noia  15057   
31/08/2018 EC2AHS/EA5    CCS-181 Palacio Municipal  12033   
31/08/2018 EC5AHA    CTE-067 Castillo de Bueña  44046   
30/08/2018 EA1BQR/P    CSO-062 Castillo Hinojosa del Campo  42100   
30/08/2018 EC5AHA    CVA-017 Castillo Curiel  47059   
28/08/2018 EC5AHA    CLE-003 Castillo de los Templarios de Ponferrada  24115   
26/08/2018 EA5XC    CA-308 Torre Ermita de la Marquesa  03903   
26/08/2018 EC5AHA    CC-013 Torreon Andrade  15069   
25/08/2018 EA1BQR/P    CSO-128 Torre de la Iglesia San Miguel  42048   
25/08/2018 EA5RKB/P    CSO-028 Castillo de Rello  42153   
24/08/2018 EA3ERT/6    CIB-066 Torre Ciudadela  07015   
23/08/2018 EA1BQR/P    CSO-110 Atalaya San Millan  42202   
23/08/2018 EA3CV    CL-008 Sanauja  25191   
22/08/2018 EA3HUX    CBU-158 Torre Santa Cruz de Andino  09903   
22/08/2018 EA3TO/P    CL-218 Morana  25907   
22/08/2018 EA5AJX    CV-217 El Castillete  46144   
21/08/2018 EA3FNZ/QRP    CT-019 Castillo de Miravet  43084   
20/08/2018 EA1BQR/P    CSO-050 Torre Chaorna  42025   
19/08/2018 EA5XC    CA-284 Fortaleza Fenicia El Cabezo Pequeño de LEstany  03076   
19/08/2018 EA9PD    CCE-002 Fuerte del Principe Alfonso  51001   
18/08/2018 EA1CW    CLU-049 Fortaleza Ombreiro  27028   
18/08/2018 EA5GOR    CA-291 Murallas del castillo  03048   
18/08/2018 EA6AIU/P    CIB-058 Castillo Sant Salvador-Arta  07006 
16/08/2018 EA3HUX    CBU-160 Murallas Exteriores y Cinco Puertas de Medina de P  09209   
16/08/2018 EC7AT/P    CGR-161 Castillo de Picena  18903   
15/08/2018 EA5GOR    CA-320 Casa Fortificada la Cometa  03047   
14/08/2018 EC7AT/P    CAL-062 Torre el Perdigal  04013   
12/08/2018 EA1CW    CLU-006 Amarante  27003   
11/08/2018 EA1BQR/P    CZ-079 Castillo de Ariza  50034   
10/08/2018 EA3RCG    CGI-056 Porqueres  17137   
10/08/2018 EA5GOR    CA-313 Torre Maestra  03104   
10/08/2018 EC7AT/P    CAL-108 Casa Fuerte la Cruceta  04013 
09/08/2018 EA3FNZ    CTE-073 Castillo de Pozuel  44190   
09/08/2018 EC7AT/P    CAL-098 La Torrecilla o Torre Alhabia  04009   
08/08/2018 EA3FNZ    CGU-021 Castillo de Palazuelos  19257   
06/08/2018 EA3HUX    CBI-254 Castillo de Ereñozar  48033   
05/08/2018 EA1BQR/P    CSO-076 Castillo de Belimbre  42167   
05/08/2018 EA5RKB    CA-095 Torre Bonanza  03119 
05/08/2018 EC7AT/P    CAL-148 Castillo Armuña de Almanzora  04018 
04/08/2018 EA3KX    CB-305 Fortificacion Iberica del Turo de Montgros  08026 
04/08/2018 EA5GOR    CA-227 Torre Cabrafich  03046 
04/08/2018 EA5XC    CA-101 Torre de Juana  03119   
03/08/2018 EC7AT/P    CAL-087 Castillo El Molinillo  04060 
31/07/2018 EA3HUX    CBU-086 Puente Fortificado de Frias  09134   
31/07/2018 EA5XC    CA-240 Iglesia Fortaleza Monforte  03088   
31/07/2018 EC7AT/P    CAL-054 Torreon Garcia  04013 
29/07/2018 EA5XC    CA-094 Torre Bosch  03014   
29/07/2018 EC7AT/P    CAL-151 Castillo Fines  04044   
28/07/2018 EA3HUX    CBU-106 Iglesia Fortificada Bisjueces  09903   

Número de registros encontrados:  6722
Se muestran 59 páginas de 115 registros cada una
Mostrando la página 1 de 59

1  2  3  4  5  6  7  8  9  10  11  12  13  14  15 
16  17  18  19  20  21  22  23  24  25  26  27  28 
29  30  31  32  33  34  35  36  37  38  39  40  41 
42  43  44  45  46  47  48  49  50  51  52  53  54 
55  56  57  58  59